Time,TemperatureF,DewpointF,PressureIn,WindDirection,WindDirectionDegrees,WindSpeedMPH,WindSpeedGustMPH,Humidity,HourlyPrecipIn,Conditions,Clouds,dailyrainin,SoftwareType,DateUTC
2013-02-14 00:14:00,53.1,43.0,29.89,SSW,204,3.0,-999.0,68,-99.99,,,0.00,weatherlink.com 1.10,2013-02-14 05:14:00,
2013-02-14 00:29:00,52.9,43.0,29.91,South,175,0.0,-999.0,68,-99.99,,,0.00,weatherlink.com 1.10,2013-02-14 05:29:00,
2013-02-14 00:44:00,52.9,43.0,29.93,East,95,4.0,-999.0,68,-99.99,,,0.00,weatherlink.com 1.10,2013-02-14 05:44:00,
2013-02-14 00:59:00,52.6,42.0,29.92,East,89,0.0,-999.0,68,-99.99,,,0.00,weatherlink.com 1.10,2013-02-14 05:59:00,
2013-02-14 01:14:00,52.5,42.0,29.92,ENE,74,1.0,-999.0,68,-99.99,,,0.00,weatherlink.com 1.10,2013-02-14 06:14:00,
2013-02-14 01:29:00,52.3,42.0,29.93,SE,141,0.0,-999.0,68,-99.99,,,0.00,weatherlink.com 1.10,2013-02-14 06:29:00,
2013-02-14 01:44:00,52.2,42.0,29.93,East,81,3.0,-999.0,68,-99.99,,,0.00,weatherlink.com 1.10,2013-02-14 06:44:00,
2013-02-14 01:59:00,52.0,42.0,29.93,SSE,153,0.0,-999.0,68,-99.99,,,0.00,weatherlink.com 1.10,2013-02-14 06:59:00,
2013-02-14 02:14:00,51.9,42.0,29.93,East,94,0.0,-999.0,69,-99.99,,,0.00,weatherlink.com 1.10,2013-02-14 07:14:00,
2013-02-14 02:29:00,51.9,42.0,29.94,South,188,3.0,-999.0,69,-99.99,,,0.00,weatherlink.com 1.10,2013-02-14 07:29:00,
2013-02-14 02:45:00,51.7,42.0,29.92,South,170,0.0,-999.0,69,-99.99,,,0.00,weatherlink.com 1.10,2013-02-14 07:45:00,
2013-02-14 03:00:00,51.6,42.0,29.96,SSW,195,0.0,-999.0,69,-99.99,,,0.00,weatherlink.com 1.10,2013-02-14 08:00:00,
2013-02-14 03:15:00,51.6,42.0,29.95,South,176,0.0,-999.0,70,-99.99,,,0.00,weatherlink.com 1.10,2013-02-14 08:15:00,
2013-02-14 03:30:00,51.3,42.0,29.95,South,191,0.0,-999.0,70,-99.99,,,0.00,weatherlink.com 1.10,2013-02-14 08:30:00,
2013-02-14 03:45:00,51.1,42.0,29.94,SSW,209,0.0,-999.0,70,-99.99,,,0.00,weatherlink.com 1.10,2013-02-14 08:45:00,
2013-02-14 04:00:00,51.0,42.0,29.93,South,187,0.0,-999.0,70,-99.99,,,0.00,weatherlink.com 1.10,2013-02-14 09:00:00,
2013-02-14 04:15:00,50.7,41.0,29.94,South,182,2.0,-999.0,70,-99.99,,,0.00,weatherlink.com 1.10,2013-02-14 09:15:00,
2013-02-14 04:30:00,50.5,41.0,29.95,SSE,167,1.0,-999.0,70,-99.99,,,0.00,weatherlink.com 1.10,2013-02-14 09:30:00,
2013-02-14 04:45:00,50.2,40.0,29.97,South,179,0.0,-999.0,69,-99.99,,,0.00,weatherlink.com 1.10,2013-02-14 09:45:00,
2013-02-14 05:00:00,49.9,40.0,29.96,SSE,165,0.0,-999.0,69,-99.99,,,0.00,weatherlink.com 1.10,2013-02-14 10:00:00,
2013-02-14 05:15:00,49.4,40.0,29.96,SSW,194,0.0,-999.0,69,-99.99,,,0.00,weatherlink.com 1.10,2013-02-14 10:15:00,
2013-02-14 05:30:00,48.9,39.0,29.97,SSE,163,0.0,-999.0,69,-99.99,,,0.00,weatherlink.com 1.10,2013-02-14 10:30:00,
2013-02-14 05:45:00,48.8,39.0,29.97,WSW,244,1.0,-999.0,69,-99.99,,,0.00,weatherlink.com 1.10,2013-02-14 10:45:00,
2013-02-14 06:00:00,48.6,39.0,29.96,WSW,243,0.0,-999.0,69,-99.99,,,0.00,weatherlink.com 1.10,2013-02-14 11:00:00,
2013-02-14 06:15:00,48.2,38.0,29.98,WSW,243,0.0,-999.0,69,-99.99,,,0.00,weatherlink.com 1.10,2013-02-14 11:15:00,
2013-02-14 06:30:00,47.6,38.0,29.97,WSW,243,0.0,-999.0,70,-99.99,,,0.00,weatherlink.com 1.10,2013-02-14 11:30:00,
2013-02-14 06:45:00,47.1,38.0,30.00,WSW,243,0.0,-999.0,70,-99.99,,,0.00,weatherlink.com 1.10,2013-02-14 11:45:00,
2013-02-14 07:00:00,46.8,38.0,29.98,WSW,243,0.0,-999.0,71,-99.99,,,0.00,weatherlink.com 1.10,2013-02-14 12:00:00,
2013-02-14 07:15:00,46.8,38.0,30.00,SW,225,0.0,-999.0,71,-99.99,,,0.00,weatherlink.com 1.10,2013-02-14 12:15:00,
2013-02-14 07:30:00,46.8,38.0,30.02,SW,216,0.0,-999.0,72,-99.99,,,0.00,weatherlink.com 1.10,2013-02-14 12:30:00,
2013-02-14 07:45:00,47.0,38.0,30.02,SSW,205,0.0,-999.0,72,-99.99,,,0.00,weatherlink.com 1.10,2013-02-14 12:45:00,
2013-02-14 08:00:00,47.1,38.0,30.01,SSW,205,0.0,-999.0,72,-99.99,,,0.00,weatherlink.com 1.10,2013-02-14 13:00:00,
2013-02-14 08:15:00,47.1,38.0,30.00,SSW,205,0.0,-999.0,72,-99.99,,,0.00,weatherlink.com 1.10,2013-02-14 13:15:00,
2013-02-14 08:30:00,47.1,38.0,30.02,SSW,205,0.0,-999.0,71,-99.99,,,0.00,weatherlink.com 1.10,2013-02-14 13:30:00,
2013-02-14 08:45:00,47.3,38.0,30.04,SSW,205,0.0,-999.0,71,-99.99,,,0.00,weatherlink.com 1.10,2013-02-14 13:45:00,
2013-02-14 09:00:00,47.3,38.0,30.05,SSW,205,1.0,-999.0,71,-99.99,,,0.00,weatherlink.com 1.10,2013-02-14 14:00:00,
2013-02-14 09:15:00,47.4,38.0,30.05,SSW,205,0.0,-999.0,70,-99.99,,,0.00,weatherlink.com 1.10,2013-02-14 14:15:00,
2013-02-14 09:30:00,48.2,39.0,30.06,SSW,205,0.0,-999.0,70,-99.99,,,0.00,weatherlink.com 1.10,2013-02-14 14:30:00,
2013-02-14 09:45:00,48.8,39.0,30.05,SSW,204,0.0,-999.0,68,-99.99,,,0.00,weatherlink.com 1.10,2013-02-14 14:45:00,
2013-02-14 10:00:00,48.9,38.0,30.06,SSW,203,1.0,-999.0,67,-99.99,,,0.00,weatherlink.com 1.10,2013-02-14 15:00:00,
2013-02-14 10:15:00,49.2,39.0,30.05,SSW,203,0.0,-999.0,67,-99.99,,,0.00,weatherlink.com 1.10,2013-02-14 15:15:00,
2013-02-14 10:30:00,49.5,38.0,30.05,SSW,203,0.0,-999.0,66,-99.99,,,0.00,weatherlink.com 1.10,2013-02-14 15:30:00,
2013-02-14 10:45:00,49.6,38.0,30.05,SSW,203,0.0,-999.0,65,-99.99,,,0.00,weatherlink.com 1.10,2013-02-14 15:45:00,
2013-02-14 11:00:00,49.9,38.0,30.05,SSW,203,0.0,-999.0,65,-99.99,,,0.00,weatherlink.com 1.10,2013-02-14 16:00:00,
2013-02-14 11:15:00,50.4,39.0,30.06,SSW,202,0.0,-999.0,65,-99.99,,,0.00,weatherlink.com 1.10,2013-02-14 16:15:00,
2013-02-14 11:30:00,51.0,39.0,30.05,SSW,202,0.0,-999.0,64,-99.99,,,0.00,weatherlink.com 1.10,2013-02-14 16:30:00,
2013-02-14 11:45:00,51.6,40.0,30.06,SSW,202,0.0,-999.0,64,-99.99,,,0.00,weatherlink.com 1.10,2013-02-14 16:45:00,
2013-02-14 12:00:00,52.0,40.0,30.07,SSW,202,0.0,-999.0,63,-99.99,,,0.00,weatherlink.com 1.10,2013-02-14 17:00:00,
2013-02-14 12:15:00,52.3,40.0,30.05,SSW,202,0.0,-999.0,63,-99.99,,,0.00,weatherlink.com 1.10,2013-02-14 17:15:00,
2013-02-14 12:30:00,52.5,40.0,30.04,SSW,202,0.0,-999.0,63,-99.99,,,0.00,weatherlink.com 1.10,2013-02-14 17:30:00,
2013-02-14 12:45:00,52.3,39.0,30.05,SSW,202,0.0,-999.0,62,-99.99,,,0.00,weatherlink.com 1.10,2013-02-14 17:45:00,
2013-02-14 13:00:00,52.2,39.0,30.03,SSW,202,0.0,-999.0,62,-99.99,,,0.00,weatherlink.com 1.10,2013-02-14 18:00:00,
2013-02-14 13:15:00,52.3,39.0,30.04,SSW,202,0.0,-999.0,62,-99.99,,,0.00,weatherlink.com 1.10,2013-02-14 18:15:00,
2013-02-14 13:30:00,52.6,40.0,30.03,SSW,202,0.0,-999.0,62,-99.99,,,0.00,weatherlink.com 1.10,2013-02-14 18:30:00,
2013-02-14 13:45:00,52.9,40.0,30.03,SSW,202,0.0,-999.0,61,-99.99,,,0.00,weatherlink.com 1.10,2013-02-14 18:45:00,
2013-02-14 14:00:00,53.2,40.0,30.03,SSW,202,0.0,-999.0,61,-99.99,,,0.00,weatherlink.com 1.10,2013-02-14 19:00:00,
2013-02-14 14:15:00,53.6,40.0,30.02,SSW,202,0.0,-999.0,60,-99.99,,,0.00,weatherlink.com 1.10,2013-02-14 19:15:00,
2013-02-14 14:30:00,53.9,40.0,30.01,SSW,202,0.0,-999.0,60,-99.99,,,0.00,weatherlink.com 1.10,2013-02-14 19:30:00,
2013-02-14 14:45:00,54.2,40.0,30.02,SSW,202,0.0,-999.0,59,-99.99,,,0.00,weatherlink.com 1.10,2013-02-14 19:45:00,
2013-02-14 15:00:00,54.1,40.0,30.00,SSW,202,0.0,-999.0,59,-99.99,,,0.00,weatherlink.com 1.10,2013-02-14 20:00:00,
2013-02-14 15:15:00,53.9,40.0,30.00,SSW,202,0.0,-999.0,59,-99.99,,,0.00,weatherlink.com 1.10,2013-02-14 20:15:00,
2013-02-14 15:30:00,53.9,40.0,30.02,SSW,202,0.0,-999.0,59,-99.99,,,0.00,weatherlink.com 1.10,2013-02-14 20:30:00,
2013-02-14 15:45:00,53.8,39.0,30.04,SSW,202,0.0,-999.0,58,-99.99,,,0.00,weatherlink.com 1.10,2013-02-14 20:45:00,
2013-02-14 16:00:00,53.5,39.0,30.03,SSW,202,0.0,-999.0,59,-99.99,,,0.00,weatherlink.com 1.10,2013-02-14 21:00:00,
2013-02-14 16:15:00,53.5,39.0,30.03,SSW,202,0.0,-999.0,58,-99.99,,,0.00,weatherlink.com 1.10,2013-02-14 21:15:00,
2013-02-14 16:30:00,53.3,40.0,30.01,SSW,202,0.0,-999.0,60,-99.99,,,0.00,weatherlink.com 1.10,2013-02-14 21:30:00,
2013-02-14 16:45:00,53.1,39.0,30.02,SSW,202,0.0,-999.0,59,-99.99,,,0.00,weatherlink.com 1.10,2013-02-14 21:45:00,
2013-02-14 17:00:00,52.8,39.0,30.02,SSW,202,0.0,-999.0,60,-99.99,,,0.00,weatherlink.com 1.10,2013-02-14 22:00:00,
2013-02-14 17:15:00,52.6,39.0,30.02,SSW,202,0.0,-999.0,60,-99.99,,,0.00,weatherlink.com 1.10,2013-02-14 22:15:00,
2013-02-14 17:30:00,52.3,39.0,30.03,SSW,202,0.0,-999.0,60,-99.99,,,0.00,weatherlink.com 1.10,2013-02-14 22:30:00,
2013-02-14 17:45:00,52.0,39.0,30.03,SSW,202,0.0,-999.0,61,-99.99,,,0.00,weatherlink.com 1.10,2013-02-14 22:45:00,
2013-02-14 18:00:00,51.4,39.0,30.02,SSW,202,0.0,-999.0,62,-99.99,,,0.00,weatherlink.com 1.10,2013-02-14 23:00:00,
2013-02-14 18:15:00,50.8,38.0,30.01,SSW,202,0.0,-999.0,63,-99.99,,,0.00,weatherlink.com 1.10,2013-02-14 23:15:00,
2013-02-14 18:30:00,50.5,39.0,30.03,SSW,202,0.0,-999.0,64,-99.99,,,0.00,weatherlink.com 1.10,2013-02-14 23:30:00,
2013-02-14 18:45:00,50.2,39.0,30.03,SSW,202,0.0,-999.0,65,-99.99,,,0.00,weatherlink.com 1.10,2013-02-14 23:45:00,
2013-02-14 19:00:00,49.8,39.0,30.04,SSW,202,0.0,-999.0,66,-99.99,,,0.00,weatherlink.com 1.10,2013-02-15 00:00:00,
2013-02-14 19:15:00,49.4,38.0,30.04,SSW,202,0.0,-999.0,66,-99.99,,,0.00,weatherlink.com 1.10,2013-02-15 00:15:00,
2013-02-14 19:30:00,48.8,38.0,30.04,SSW,202,0.0,-999.0,67,-99.99,,,0.00,weatherlink.com 1.10,2013-02-15 00:30:00,
2013-02-14 19:45:00,48.5,38.0,30.05,SSW,202,0.0,-999.0,67,-99.99,,,0.00,weatherlink.com 1.10,2013-02-15 00:45:00,
2013-02-14 20:00:00,48.0,38.0,30.05,SSW,202,0.0,-999.0,69,-99.99,,,0.00,weatherlink.com 1.10,2013-02-15 01:00:00,
2013-02-14 20:15:00,47.7,38.0,30.04,SSW,202,0.0,-999.0,69,-99.99,,,0.00,weatherlink.com 1.10,2013-02-15 01:15:00,
2013-02-14 20:30:00,47.4,38.0,30.06,SSW,202,0.0,-999.0,70,-99.99,,,0.00,weatherlink.com 1.10,2013-02-15 01:30:00,
2013-02-14 20:45:00,46.8,38.0,30.05,SSW,202,0.0,-999.0,71,-99.99,,,0.00,weatherlink.com 1.10,2013-02-15 01:45:00,
2013-02-14 21:00:00,46.1,37.0,30.05,SSW,202,0.0,-999.0,71,-99.99,,,0.00,weatherlink.com 1.10,2013-02-15 02:00:00,
2013-02-14 21:16:00,45.2,37.0,30.05,SSW,202,0.0,-999.0,72,-99.99,,,0.00,weatherlink.com 1.10,2013-02-15 02:16:00,
2013-02-14 21:31:00,44.9,37.0,30.05,SSW,202,0.0,-999.0,73,-99.99,,,0.00,weatherlink.com 1.10,2013-02-15 02:31:00,
2013-02-14 21:46:00,44.6,36.0,30.06,SSW,202,0.0,-999.0,73,-99.99,,,0.00,weatherlink.com 1.10,2013-02-15 02:46:00,
2013-02-14 22:01:00,44.6,36.0,30.07,SSW,202,0.0,-999.0,73,-99.99,,,0.00,weatherlink.com 1.10,2013-02-15 03:01:00,
2013-02-14 22:16:00,44.6,37.0,30.06,SSW,202,0.0,-999.0,74,-99.99,,,0.00,weatherlink.com 1.10,2013-02-15 03:16:00,
2013-02-14 22:31:00,44.6,37.0,30.06,SSW,202,0.0,-999.0,74,-99.99,,,0.00,weatherlink.com 1.10,2013-02-15 03:31:00,
2013-02-14 22:46:00,44.5,37.0,30.06,SSW,202,0.0,-999.0,75,-99.99,,,0.00,weatherlink.com 1.10,2013-02-15 03:46:00,
2013-02-14 23:01:00,44.6,37.0,30.04,SSW,202,0.0,-999.0,76,-99.99,,,0.00,weatherlink.com 1.10,2013-02-15 04:01:00,
2013-02-14 23:16:00,44.5,37.0,30.03,SSW,202,0.0,-999.0,76,-99.99,,,0.00,weatherlink.com 1.10,2013-02-15 04:16:00,
2013-02-14 23:31:00,44.5,37.0,30.05,SSW,202,0.0,-999.0,76,-99.99,,,0.00,weatherlink.com 1.10,2013-02-15 04:31:00,
2013-02-14 23:46:00,44.3,38.0,30.05,SSW,202,0.0,-999.0,77,-99.99,,,0.00,weatherlink.com 1.10,2013-02-15 04:46:00,